Location: Six Mile Lake
(44.9000°N, 79.7170°W)
Time: 06:41:25
(UTC-04:00)

ESTCUBE 1 - Pass Details

Date: 07 July 2022
Orbit: 645 x 657 km, 97.9° (Epoch: 15 August)

Event Time Altitude Azimuth Distance (km) Brightness Sun altitude
Exits shadow 23:34:15 34° 181° (S) 1,077 ? -18.1°
Maximum altitude 23:36:10 72° 258° (WSW) 685 ? -18.3°
Drops below altitude 10° 23:40:39 10° 343° (NNW) 2,063 ? -18.6°
Sets 23:42:54 0° 346° (NNW) 2,980 ? -18.8°
